Observations for Trim Patrick St
| Time | AQI | Temp °C | Hum % | Pres Pa | CO μg/m³ | H₂S μg/m³ | NO μg/m³ | NO₂ μg/m³ | O₃ μg/m³ | SO₂ μg/m³ | PM1 μg/m³ | PM2.5 μg/m³ | PM10 μg/m³ |
|---|---|---|---|---|---|---|---|---|---|---|---|---|---|
| Friday 28 August 2026 | |||||||||||||
| 04:51 | 3 | 16.2 | 88 | 38,459 | 0.16 | 1.14 | 1.49 | 13.18 | 31.13 | 0 | 9.71 | 16.98 | 18.67 |
| 04:50 | 3 | 16.3 | 88 | 38,459 | 0.15 | 0.87 | 1.44 | 12.99 | 31.88 | 0 | 12.29 | 18.33 | 20.16 |
| 04:49 | 3 | 16.2 | 88 | 38,459 | 0.16 | 1.42 | 1.57 | 13.08 | 31.63 | 0 | 9.71 | 15.6 | 17.16 |
| 04:48 | 3 | 16.2 | 88 | 38,459 | 0.16 | 0.74 | 1.72 | 12.71 | 31.68 | 0 | 11.43 | 16.29 | 17.92 |
| 04:47 | 3 | 16.3 | 88 | 38,459 | 0.15 | 0.51 | 1.94 | 12.54 | 33.49 | 0 | 10.57 | 16.97 | 18.66 |
| 04:46 | 3 | 16.3 | 88 | 38,459 | 0.15 | 0.46 | 1.85 | 12.42 | 35.22 | 0 | 12.29 | 17.66 | 19.42 |
| 04:45 | 3 | 16.3 | 88 | 38,459 | 0.16 | 1.16 | 1.89 | 12.53 | 35.21 | 0 | 11.43 | 17.66 | 19.42 |
| 04:44 | 3 | 16.3 | 88 | 38,459 | 0.16 | 1.47 | 1.85 | 13.09 | 30.97 | 0 | 10.57 | 16.29 | 17.92 |
| 04:43 | 3 | 16.3 | 88 | 38,459 | 0.15 | 1.97 | 1.74 | 14.77 | 26.73 | 0 | 10.57 | 14.93 | 16.42 |
| 04:42 | 3 | 16.3 | 88 | 38,459 | 0.15 | 0.82 | 1.57 | 12.64 | 33.62 | 0 | 10.57 | 15.61 | 17.17 |
| 04:41 | 3 | 16.3 | 88 | 38,459 | 0.15 | 0.93 | 1.61 | 12.76 | 33.11 | 0 | 12.29 | 16.98 | 18.67 |
| 04:40 | 3 | 16.3 | 88 | 38,459 | 0.16 | 1.03 | 1.6 | 12.88 | 31.91 | 0 | 9.71 | 15.61 | 17.17 |
| 04:39 | 3 | 16.3 | 88 | 38,459 | 0.16 | 0.93 | 1.47 | 12.53 | 32.35 | 0 | 9.71 | 14.93 | 16.42 |
| 04:38 | 3 | 16.3 | 88 | 38,459 | 0.17 | 1.08 | 1.33 | 12.64 | 35.25 | 0 | 11.43 | 16.98 | 18.67 |
| 04:37 | 3 | 16.3 | 88 | 38,459 | 0.16 | 0.74 | 1.52 | 12.07 | 35.73 | 0 | 10.57 | 16.98 | 18.67 |
| 04:36 | 3 | 16.3 | 88 | 38,459 | 0.15 | 1.68 | 1.81 | 13.8 | 32.61 | 0 | 10.57 | 14.93 | 16.42 |
| 04:35 | 3 | 16.3 | 88 | 38,459 | 0.16 | 1.97 | 1.94 | 14.04 | 30.67 | 0 | 10.57 | 16.29 | 17.92 |
| 04:34 | 3 | 16.3 | 88 | 38,459 | 0.15 | 1.66 | 1.82 | 13.8 | 32.43 | 0 | 13.14 | 16.98 | 18.67 |
| 04:33 | 3 | 16.3 | 88 | 38,459 | 0.16 | 1.16 | 1.94 | 13.09 | 32.72 | 0 | 10.57 | 14.24 | 15.67 |
| 04:32 | 3 | 16.3 | 88 | 38,459 | 0.16 | 0.9 | 1.75 | 12.63 | 34.67 | 0 | 10.57 | 14.94 | 16.43 |